TimeMDT,TemperatureF,Dew PointF,Humidity,Sea Level PressureIn,VisibilityMPH,Wind Direction,Wind SpeedMPH,Gust SpeedMPH,PrecipitationIn,Events,Conditions,WindDirDegrees,DateUTC
12:53 AM,36.0,9.0,33,29.91,10.0,North,5.8,-,N/A,,Clear,360,2013-05-04 06:53:00
1:53 AM,34.0,8.1,34,29.89,10.0,ENE,4.6,-,N/A,,Clear,60,2013-05-04 07:53:00
2:53 AM,30.0,8.1,40,29.90,10.0,ENE,6.9,-,N/A,,Clear,70,2013-05-04 08:53:00
3:53 AM,30.0,8.1,40,29.89,10.0,ENE,6.9,-,N/A,,Clear,60,2013-05-04 09:53:00
4:53 AM,28.0,8.1,43,29.89,10.0,ENE,4.6,-,N/A,,Clear,70,2013-05-04 10:53:00
5:53 AM,25.0,9.0,51,29.91,10.0,Calm,Calm,-,N/A,,Clear,0,2013-05-04 11:53:00
6:53 AM,28.9,10.0,45,29.90,10.0,ENE,5.8,-,N/A,,Clear,60,2013-05-04 12:53:00
7:53 AM,42.1,12.0,29,29.88,10.0,Calm,Calm,-,N/A,,Clear,0,2013-05-04 13:53:00
8:53 AM,51.1,14.0,23,29.90,10.0,Calm,Calm,-,N/A,,Clear,0,2013-05-04 14:53:00
9:53 AM,59.0,10.0,14,29.87,10.0,Calm,Calm,-,N/A,,Clear,0,2013-05-04 15:53:00
10:53 AM,64.0,9.0,12,29.86,10.0,Variable,3.5,-,N/A,,Clear,0,2013-05-04 16:53:00
11:53 AM,68.0,6.1,9,29.83,10.0,Variable,4.6,-,N/A,,Clear,0,2013-05-04 17:53:00
12:53 PM,73.0,6.1,7,29.81,10.0,SSW,16.1,-,N/A,,Clear,210,2013-05-04 18:53:00
1:53 PM,72.0,3.0,7,29.81,10.0,SW,12.7,19.6,N/A,,Clear,220,2013-05-04 19:53:00
2:53 PM,73.9,3.0,6,29.80,10.0,SW,10.4,24.2,N/A,,Clear,230,2013-05-04 20:53:00
3:53 PM,73.9,-0.0,5,29.77,10.0,SW,9.2,24.2,N/A,,Clear,220,2013-05-04 21:53:00
4:53 PM,73.0,-0.0,6,29.76,10.0,WSW,8.1,19.6,N/A,,Clear,240,2013-05-04 22:53:00
5:53 PM,73.0,1.9,6,29.78,10.0,SW,10.4,-,N/A,,Clear,220,2013-05-04 23:53:00
6:53 PM,72.0,1.9,6,29.75,10.0,SW,4.6,-,N/A,,Clear,230,2013-05-05 00:53:00
7:53 PM,62.1,16.0,17,29.75,10.0,ESE,4.6,-,N/A,,Clear,120,2013-05-05 01:53:00
8:53 PM,55.0,12.0,18,29.76,10.0,Calm,Calm,-,N/A,,Clear,0,2013-05-05 02:53:00
9:53 PM,53.1,14.0,21,29.76,10.0,NE,5.8,-,N/A,,Clear,50,2013-05-05 03:53:00
10:48 PM,64.4,10.4,12,29.93,10.0,SE,12.7,26.5,N/A,,Partly Cloudy,140,2013-05-05 04:48:00
10:53 PM,64.0,10.0,12,29.72,10.0,SE,11.5,-,N/A,,Clear,140,2013-05-05 04:53:00
11:53 PM,63.0,10.0,13,29.70,10.0,SE,17.3,-,N/A,,Clear,140,2013-05-05 05:53:00